Retour au catalogue

STARLINK-6226

ActifCommunicationsVLEO
NORAD 56544·PAYLOAD·🇺🇸 United States

Lancé May 14, 2023 depuis Cape Canaveral Space Force Station

Loading…

Prochains Passages (prochaines 24 heures)

TLE

FraisSource: CelesTrak SupGP

Époque: Sep 15, 2026, 01:42 UTC

1 56544C 23065AT  26258.07131944 -.00021183  00000+0 -76764-3 0  2589
2 56544  42.9995 233.7029 0000979 255.2369 329.1171 15.27572092    12

Suivez STARLINK-6226 en temps réel avec AllMySat

Download on the App Store